sat.trackr.live / text

‹ back to catalog

STARLINK-34802

NORAD 65067 · 2025-165M

PAYLOAD ACTIVE UNKNOWN

§ Identity

Operator
Country
US
Launch date
2025-07-31
Launch site
AFWTR
Launch vehicle
Mass (kg)
RCS (m²)

Purposes: comms

External: N2YO · Heavens-Above · Gunter

§ Orbital elements

Epoch: 2026-09-20T03:38:22.554816Z

Period
93.91 min
Inclination
97.2844°
Eccentricity
0.0001422
Mean motion
15.33450040 rev/d
Perigee alt
464.6 km
Apogee alt
466.5 km
Semi-major
6,843.7 km
B*
4.2740e-4
RAAN
334.3990°
Arg perigee
88.5975°
Mean anomaly
271.5430°
Rev number
6,407

§ Raw data

STARLINK-348021 65067U 25165M   26263.15164994  .00013750  00000+0  42740-3 0  99962 65067  97.2844 334.3990 0001422  88.5975 271.5430 15.33450040 64076

JSON: /api/v1/satellites/65067 · /tle

For live sub-satellite position, see the globe view (requires WebGL).

§ Visibility from observer

Set your observer location to see the next 7 days of passes ≥ 10°. The values pass through the URL so the page stays shareable.

No JS? Fill the form by hand. The geolocation button needs JavaScript.